| time (UTC) | temp C | wind direction | speed KPH | gust KPH | rain 1hr cm | rain 24hr cm | rain mn cm | humidity % | barometer mb |
| 20260508035144 | 15 | 55 | 0.0 | 3.2 | 0.00 | 0.00 | 0.00 | 76 | 1010.2 |
| 20260508034150 | 14 | 59 | 0.0 | 3.2 | 0.00 | 0.00 | 0.00 | 76 | 1010.2 |
| 20260508033204 | 14 | 52 | 0.0 | 1.6 | 0.00 | 0.00 | 0.00 | 76 | 1010.2 |
| 20260508032222 | 14 | 52 | 0.0 | 4.8 | 0.00 | 0.00 | 0.00 | 77 | 1010.2 |
| 20260508031150 | 14 | 53 | 0.0 | 3.2 | 0.00 | 0.00 | 0.00 | 77 | 1010.2 |
| 20260508030141 | 14 | 21 | 0.0 | 3.2 | 0.00 | 0.00 | 0.00 | 77 | 1010.2 |
| 20260508025134 | 14 | 21 | 1.6 | 4.8 | 0.00 | 0.00 | 0.00 | 77 | 1010.2 |
| 20260508024154 | 14 | 30 | 1.6 | 4.8 | 0.00 | 0.00 | 0.00 | 77 | 1010.2 |
| 20260508023210 | 14 | 31 | 1.6 | 3.2 | 0.00 | 0.00 | 0.00 | 78 | 1010.4 |
| 20260508021027 | 15 | 31 | 0.0 | 0.0 | 0.00 | 0.00 | 0.00 | 77 | 1010.5 |
| 20260508020027 | 15 | 22 | 0.0 | 3.2 | 0.00 | 0.00 | 0.00 | 77 | 1010.6 |
| 20260508015040 | 15 | 22 | 0.0 | 3.2 | 0.00 | 0.00 | 0.00 | 77 | 1010.6 |
| 20260508014027 | 15 | 23 | 0.0 | 3.2 | 0.00 | 0.00 | 0.00 | 77 | 1010.6 |
| 20260508013032 | 15 | 37 | 0.0 | 3.2 | 0.00 | 0.00 | 0.00 | 77 | 1010.7 |
| 20260508012024 | 15 | 40 | 1.6 | 3.2 | 0.00 | 0.00 | 0.00 | 77 | 1010.7 |
| 20260508011019 | 15 | 40 | 1.6 | 3.2 | 0.00 | 0.00 | 0.00 | 77 | 1010.7 |
| 20260508004929 | 15 | 40 | 0.0 | 1.6 | 0.00 | 0.03 | 0.00 | 76 | 1011.0 |
| 20260508003901 | 15 | 42 | 0.0 | 0.0 | 0.00 | 0.05 | 0.00 | 76 | 1011.1 |
| 20260508002911 | 15 | 41 | 0.0 | 1.6 | 0.00 | 0.08 | 0.00 | 76 | 1011.2 |
| 20260508001839 | 15 | 38 | 0.0 | 1.6 | 0.00 | 0.08 | 0.00 | 76 | 1011.3 |
| 20260508000806 | 15 | 38 | 0.0 | 1.6 | 0.00 | 0.08 | 0.00 | 76 | 1011.3 |
| 20260507235742 | 15 | 38 | 1.6 | 3.2 | 0.00 | 0.08 | 0.00 | 76 | 1011.4 |
| 20260507234730 | 15 | 38 | 0.0 | 3.2 | 0.00 | 0.08 | 0.00 | 76 | 1011.4 |
| 20260507233740 | 15 | 38 | 0.0 | 3.2 | 0.00 | 0.08 | 0.00 | 76 | 1011.5 |
| 20260507232739 | 15 | 15 | 0.0 | 3.2 | 0.00 | 0.08 | 0.00 | 76 | 1011.5 |
| 20260507231715 | 15 | 13 | 0.0 | 3.2 | 0.00 | 0.08 | 0.00 | 76 | 1011.8 |
| 20260507230658 | 15 | 14 | 0.0 | 0.0 | 0.00 | 0.08 | 0.00 | 75 | 1012.2 |
| 20260507225648 | 15 | 5 | 0.0 | 1.6 | 0.00 | 0.10 | 0.00 | 75 | 1012.4 |
| 20260507224650 | 15 | 5 | 0.0 | 0.0 | 0.00 | 0.10 | 0.00 | 74 | 1012.4 |
| 20260507222510 | 15 | 5 | 0.0 | 4.8 | 0.00 | 0.10 | 0.00 | 73 | 1012.3 |
| 20260507221515 | 15 | 5 | 1.6 | 4.8 | 0.00 | 0.10 | 0.00 | 73 | 1012.2 |
| 20260507220455 | 15 | 5 | 1.6 | 3.2 | 0.00 | 0.10 | 0.00 | 72 | 1012.2 |
| 20260507215512 | 15 | 9 | 0.0 | 3.2 | 0.00 | 0.10 | 0.10 | 72 | 1012.2 |
| 20260507214521 | 15 | 9 | 0.0 | 1.6 | 0.00 | 0.10 | 0.10 | 71 | 1012.2 |
| 20260507213523 | 15 | 9 | 0.0 | 1.6 | 0.00 | 0.10 | 0.10 | 71 | 1012.3 |
| 20260507212457 | 15 | 9 | 0.0 | 0.0 | 0.00 | 0.10 | 0.10 | 71 | 1012.4 |
| 20260507211506 | 15 | 9 | 0.0 | 0.0 | 0.00 | 0.10 | 0.10 | 72 | 1012.3 |
| 20260507210501 | 15 | 9 | 0.0 | 0.0 | 0.00 | 0.10 | 0.10 | 72 | 1012.4 |
| 20260507205438 | 15 | 9 | 0.0 | 1.6 | 0.00 | 0.10 | 0.10 | 71 | 1012.4 |
| 20260507204412 | 15 | 9 | 0.0 | 0.0 | 0.00 | 0.10 | 0.10 | 70 | 1012.4 |
| 20260507202311 | 16 | 9 | 0.0 | 0.0 | 0.00 | 0.10 | 0.10 | 69 | 1012.3 |
| 20260507201258 | 16 | 9 | 0.0 | 0.0 | 0.00 | 0.10 | 0.10 | 67 | 1012.4 |
| 20260507200235 | 17 | 13 | 0.0 | 1.6 | 0.00 | 0.10 | 0.10 | 65 | 1012.2 |
| 20260507195204 | 17 | 13 | 0.0 | 0.0 | 0.00 | 0.10 | 0.10 | 66 | 1012.2 |
| 20260507194150 | 17 | 13 | 0.0 | 0.0 | 0.00 | 0.10 | 0.10 | 67 | 1012.1 |
| 20260507193209 | 17 | 13 | 0.0 | 0.0 | 0.00 | 0.10 | 0.10 | 67 | 1012.1 |
| 20260507192201 | 17 | 13 | 0.0 | 0.0 | 0.00 | 0.10 | 0.10 | 68 | 1012.1 |
| 20260507190003 | 17 | 44 | 0.0 | 0.0 | 0.00 | 0.13 | 0.10 | 64 | 1011.9 |
| 20260507184934 | 17 | 44 | 0.0 | 0.0 | 0.00 | 0.13 | 0.10 | 64 | 1012.0 |
| 20260507183956 | 18 | 44 | 0.0 | 0.0 | 0.00 | 0.13 | 0.10 | 63 | 1012.1 |
| 20260507183021 | 18 | 44 | 0.0 | 0.0 | 0.00 | 0.13 | 0.10 | 62 | 1012.0 |
| 20260507182022 | 18 | 44 | 0.0 | 0.0 | 0.00 | 0.13 | 0.10 | 62 | 1012.1 |
| 20260507181012 | 18 | 44 | 0.0 | 0.0 | 0.00 | 0.13 | 0.10 | 63 | 1012.0 |
| 20260507180034 | 18 | 44 | 0.0 | 0.0 | 0.00 | 0.13 | 0.10 | 63 | 1011.9 |
| 20260507173847 | 18 | 44 | 0.0 | 0.0 | 0.00 | 0.13 | 0.10 | 60 | 1011.7 |
| 20260507171735 | 19 | 44 | 0.0 | 0.0 | 0.00 | 0.15 | 0.10 | 61 | 1011.7 |
| 20260507165552 | 20 | 44 | 0.0 | 0.0 | 0.00 | 0.15 | 0.10 | 59 | 1011.6 |
| 20260507164607 | 20 | 44 | 0.0 | 0.0 | 0.00 | 0.15 | 0.10 | 60 | 1011.5 |
| 20260507163629 | 20 | 44 | 0.0 | 0.0 | 0.00 | 0.15 | 0.10 | 60 | 1011.5 |
| 20260507162619 | 19 | 44 | 0.0 | 0.0 | 0.00 | 0.15 | 0.10 | 61 | 1011.5 |
| 20260507161554 | 19 | 44 | 0.0 | 0.0 | 0.00 | 0.15 | 0.10 | 61 | 1011.6 |
| 20260507160559 | 20 | 44 | 0.0 | 0.0 | 0.00 | 0.15 | 0.10 | 61 | 1011.7 |
| 20260507155536 | 20 | 44 | 0.0 | 0.0 | 0.00 | 0.15 | 0.10 | 59 | 1011.8 |
| 20260507154516 | 20 | 49 | 0.0 | 0.0 | 0.00 | 0.15 | 0.10 | 56 | 1011.8 |
| 20260507153523 | 20 | 48 | 1.6 | 4.8 | 0.00 | 0.15 | 0.10 | 59 | 1011.9 |
| 20260507152546 | 20 | 62 | 0.0 | 4.8 | 0.00 | 0.15 | 0.10 | 60 | 1011.8 |
| 20260507151553 | 20 | 63 | 0.0 | 1.6 | 0.00 | 0.15 | 0.10 | 59 | 1011.9 |
| 20260507150604 | 21 | 62 | 0.0 | 0.0 | 0.00 | 0.18 | 0.10 | 60 | 1011.9 |
| 20260507145533 | 20 | 53 | 0.0 | 0.0 | 0.00 | 0.18 | 0.10 | 59 | 1012.0 |
| 20260507144522 | 20 | 63 | 1.6 | 4.8 | 0.00 | 0.18 | 0.10 | 60 | 1012.1 |
| 20260507143536 | 20 | 228 | 0.0 | 1.6 | 0.00 | 0.18 | 0.10 | 62 | 1012.1 |
| 20260507142541 | 20 | 223 | 0.0 | 0.0 | 0.00 | 0.18 | 0.10 | 62 | 1012.2 |
| 20260507141601 | 20 | 223 | 0.0 | 0.0 | 0.00 | 0.18 | 0.10 | 60 | 1012.4 |
| 20260507140615 | 21 | 223 | 0.0 | 3.2 | 0.00 | 0.18 | 0.10 | 59 | 1012.4 |
| 20260507135636 | 20 | 223 | 0.0 | 0.0 | 0.00 | 0.18 | 0.10 | 60 | 1012.6 |
| 20260507134616 | 21 | 223 | 0.0 | 0.0 | 0.00 | 0.18 | 0.10 | 60 | 1012.6 |
| 20260507133631 | 21 | 223 | 0.0 | 1.6 | 0.00 | 0.18 | 0.10 | 60 | 1012.8 |
| 20260507132636 | 21 | 223 | 0.0 | 3.2 | 0.00 | 0.18 | 0.10 | 58 | 1012.8 |
| 20260507130457 | 21 | 223 | 1.6 | 6.4 | 0.00 | 0.18 | 0.10 | 61 | 1013.0 |
| 20260507125426 | 20 | 283 | 1.6 | 9.7 | 0.00 | 0.18 | 0.10 | 61 | 1013.1 |
| 20260507124437 | 20 | 208 | 4.8 | 12.9 | 0.00 | 0.18 | 0.10 | 60 | 1013.1 |
| 20260507123406 | 20 | 238 | 3.2 | 12.9 | 0.00 | 0.18 | 0.10 | 58 | 1013.0 |
| 20260507122410 | 21 | 178 | 4.8 | 11.3 | 0.00 | 0.18 | 0.10 | 59 | 1013.0 |
| 20260507121410 | 21 | 228 | 1.6 | 6.4 | 0.00 | 0.18 | 0.10 | 58 | 1013.1 |
| 20260507120400 | 20 | 144 | 0.0 | 3.2 | 0.00 | 0.18 | 0.10 | 60 | 1013.1 |
| 20260507115340 | 20 | 100 | 3.2 | 9.7 | 0.00 | 0.18 | 0.10 | 62 | 1013.1 |
| 20260507114402 | 20 | 158 | 3.2 | 9.7 | 0.00 | 0.18 | 0.10 | 62 | 1013.2 |
| 20260507113353 | 20 | 125 | 1.6 | 9.7 | 0.00 | 0.18 | 0.10 | 62 | 1013.2 |
| 20260507112341 | 19 | 215 | 6.4 | 11.3 | 0.00 | 0.18 | 0.10 | 64 | 1013.3 |
| 20260507111335 | 19 | 165 | 3.2 | 12.9 | 0.00 | 0.18 | 0.10 | 66 | 1013.4 |
| 20260507110330 | 19 | 121 | 3.2 | 12.9 | 0.00 | 0.18 | 0.10 | 66 | 1013.5 |
| 20260507105322 | 18 | 230 | 3.2 | 9.7 | 0.00 | 0.18 | 0.10 | 67 | 1013.5 |
| 20260507104253 | 18 | 227 | 1.6 | 8.0 | 0.00 | 0.18 | 0.10 | 69 | 1013.6 |
| 20260507103301 | 18 | 156 | 3.2 | 11.3 | 0.00 | 0.18 | 0.10 | 70 | 1013.7 |
| 20260507102325 | 18 | 215 | 3.2 | 11.3 | 0.00 | 0.18 | 0.10 | 71 | 1013.8 |
| 20260507101350 | 18 | 240 | 4.8 | 11.3 | 0.00 | 0.18 | 0.10 | 71 | 1013.8 |
| 20260507100407 | 18 | 234 | 3.2 | 8.0 | 0.00 | 0.18 | 0.10 | 72 | 1013.7 |
| 20260507093147 | 17 | 202 | 1.6 | 6.4 | 0.00 | 0.18 | 0.10 | 76 | 1013.8 |
| 20260507092200 | 17 | 218 | 1.6 | 6.4 | 0.00 | 0.18 | 0.10 | 78 | 1013.9 |
| 20260507091139 | 17 | 213 | 1.6 | 8.0 | 0.00 | 0.18 | 0.10 | 79 | 1014.1 |
| 20260507090120 | 17 | 213 | 3.2 | 12.9 | 0.00 | 0.18 | 0.10 | 78 | 1014.1 |
| 20260507085133 | 17 | 94 | 1.6 | 11.3 | 0.00 | 0.18 | 0.10 | 78 | 1014.0 |
| 20260507084102 | 17 | 126 | 1.6 | 8.0 | 0.00 | 0.18 | 0.10 | 81 | 1013.9 |
| 20260507083045 | 16 | 190 | 3.2 | 12.9 | 0.00 | 0.18 | 0.10 | 82 | 1014.0 |
| 20260507080916 | 15 | 203 | 4.8 | 11.3 | 0.00 | 0.18 | 0.10 | 85 | 1014.1 |
| 20260507075940 | 15 | 192 | 4.8 | 11.3 | 0.00 | 0.18 | 0.10 | 85 | 1014.1 |
| 20260507074924 | 15 | 153 | 3.2 | 9.7 | 0.00 | 0.18 | 0.10 | 87 | 1013.9 |
| 20260507073942 | 15 | 202 | 3.2 | 11.3 | 0.00 | 0.18 | 0.10 | 88 | 1014.0 |
| 20260507072933 | 14 | 219 | 3.2 | 11.3 | 0.00 | 0.18 | 0.10 | 88 | 1013.9 |
| 20260507071904 | 14 | 223 | 4.8 | 12.9 | 0.00 | 0.18 | 0.10 | 88 | 1014.0 |
| 20260507070835 | 14 | 234 | 6.4 | 12.9 | 0.00 | 0.18 | 0.10 | 89 | 1014.0 |
| 20260507065856 | 13 | 214 | 4.8 | 11.3 | 0.00 | 0.18 | 0.10 | 89 | 1013.9 |
| 20260507064838 | 13 | 198 | 4.8 | 11.3 | 0.00 | 0.18 | 0.10 | 90 | 1013.8 |
| 20260507063836 | 13 | 199 | 4.8 | 12.9 | 0.00 | 0.18 | 0.10 | 90 | 1013.8 |
| 20260507062806 | 13 | 209 | 6.4 | 12.9 | 0.00 | 0.18 | 0.10 | 90 | 1013.7 |
| 20260507054421 | 12 | 170 | 0.0 | 9.7 | 0.00 | 0.18 | 0.10 | 92 | 1013.7 |
| 20260507053407 | 12 | 166 | 3.2 | 19.3 | 0.00 | 0.18 | 0.10 | 92 | 1013.7 |
| 20260507051301 | 12 | 148 | 4.8 | 16.1 | 0.00 | 0.20 | 0.10 | 92 | 1013.6 |
| 20260507050226 | 12 | 141 | 3.2 | 9.7 | 0.00 | 0.20 | 0.10 | 92 | 1013.5 |
| 20260507045231 | 12 | 206 | 6.4 | 14.5 | 0.00 | 0.20 | 0.10 | 92 | 1013.4 |
| 20260507043106 | 12 | 192 | 8.0 | 19.3 | 0.00 | 0.20 | 0.10 | 92 | 1013.1 |
| 20260507042119 | 12 | 165 | 6.4 | 17.7 | 0.00 | 0.20 | 0.10 | 92 | 1013.0 |
| 20260507041111 | 12 | 194 | 8.0 | 17.7 | 0.00 | 0.20 | 0.10 | 92 | 1012.9 |
| 20260507040126 | 12 | 204 | 6.4 | 16.1 | 0.00 | 0.20 | 0.10 | 92 | 1012.9 |